THORAD AGENA D DEB

Satellite information

Favourite Embed

Satellite Type and Status

DEBRISIN ORBIT

Key statistics

Satellite THORAD AGENA D DEB at a glance.

Uptime

20338

Days in orbit

Revolutions

≈ 12.7

Per day

Orbit

SSO

Sun Synchronous Orbit

Inclination

99.8

Latest

Satellite identification and parameters

Extended collection of information and parameters for THORAD AGENA D DEB.

Object identification

Identified? True

Debris? True

Object name: THORAD AGENA D DEB

International designator: 1970-025HW

Object number (NORAD): 5000

Object ID (CCSDS): 5000

Country: UNITED STATES OF AMERICA (US)

Current information (Y/N): Y

RCS size: SMALL

Orbital parameters

Period: 113.34 minutes

Inclination: 99.7975 deg

SMA: 7757.971 km

Apoapsis: 1762.722 km

Periapsis: 996.949 km

RAAN: 257.0115 deg

Eccentricy: 0.04935395

Argument of periapsis: 2.0111 deg

Mean anomaly: 124.6931 deg

Mean motion: 12.70517218 rev/day

Mean motion (dot): 0.00001035 rev/day2

B* drag term: 0.0032835192 1/REarth

Two-line elements (TLE)

Creation date: Dec. 12, 2025, 10:14 a.m.

Reference frame: TEME

Reference center: EARTH

Epoch: Dec. 12, 2025, 6:01 a.m. UTC

TLE line 0: 0 THORAD AGENA D DEB

TLE line 1: 1 05000U 70025HW 25346.25081992 .00001035 00000-0 32835-2 0 9997

TLE line 2: 2 05000 99.7975 257.0115 0493539 2.0111 124.6931 12.70517218567921

Live tracking on map

Real-time ground track for satellite THORAD AGENA D DEB.

In-orbit conjunctions

A list of the most updated potential collisions computed for object THORAD AGENA D DEB.

Target Orbit TCA Probability of collision Miss distance Type
OV1-9 HEO 2025-03-29 08:27:56 0.001048482 228.0 (m) PAYLOAD
COSMOS 1959 LEO 2024-12-03 16:18:48 0.0006847522 295.0 (m) PAYLOAD
SL-14 DEB LEO 2024-10-18 07:39:22 0.0001003353 142.0 (m) DEBRIS

Associated space launch

Meteorological research and development satellite

THORAD AGENA D DEB was lifted into orbit during the mission ‘Thorad SLV-2G Agena D | Nimbus 4’, on board a Thorad SLV-2G Agena D space rocket.

The launch took place on April 8, 1970, 8:17 a.m. from Space Launch Complex 2E.

For more information about the launch, click the button.

Launch to space Thorad SLV-2G Agena D | Nimbus 4
Thorad SLV-2G Agena D | Nimbus 4

Agency: N/A

Status: Launch Successful

Launch date: April 8, 1970, 8:17 a.m. UTC

Rocket: Thorad SLV-2G Agena D

Launch pad: Space Launch Complex 2E

Location: Vandenberg SFB, CA, USA

...

Latest news about this satellite

There are no fresh news available about this satellite. Check back as we update our databases every day.


Newsletter sign-up

Weekly statistics, charts and insights to help you stay on top of the space industry.